Forside
METAR-TAF:

METAR-TAF

Lufthavne :

Sallisaw, Oklahoma, USA

Breddekreds: 35-26-17N, længdekreds: 094-48-10W, højde: 161 m

Aktuelle vejr

Denne rapport blev lavet for 6 minutter siden, kl. 18:15 UTC
Vind 13 kt fra østsydøst med vindstød på up til 20 kt
Temperatur 5°C
Fugtighed 60%
Tryk 1022 hPa
Sigt: 16.1 km
skyfri

METAR: KJSV 211815Z AUTO 11013G20KT 10SM CLR 05/M02 A3017 RMK AO2

Tid: 12:21 (18:21 UTC)


TAF: fraværende

Vejrobservationer og prognoser fra mere end 4000 lufthavne (METAR og TAF).

De gule og røde prikker repræsenterer de meteorologiske stationer.

Flyt musen over at se navnet på stationen.

Så klik over at se vejr observationer og prognoser.

At skifte det kort: Klik på de grønne knapper med et sort kors for at zoome ind; på den grønne knap med en bindestreg for at zoome ud; eller på de grønne pile for tilstødende kort.


METAR-TAF: